[[{"header":{"parameterUnit":"m.s-1","parameterCategory":1,"la1":30.2991,"la2":30.254,"lo1":-89.0895,"lo2":-89.0444,"dy":0.0017,"dx":0.0017,"nx":28,"ny":28,"refTime":"2025-04-03T03:00:00:Z","depth":0,"parameterNumber":2,"parameterNumberName":"U-component_of_WINDS"},"data":[0,0,0,0,0,0,0,0,0,0,0,0,0,0,0,0,0,0,0,0,0,0,0,0,0,0,0,0,0,0,0,0,0,0,0,0,0,0,0,0,0,0,0,0,0,0,0,0,0,0,0,0,0,0,0,0,0,0,-5.9315,-5.9316,0,-5.9413,-5.9414,-5.9415,-5.9398,-5.9396,-5.9394,-5.9393,-5.9491,-5.9495,-5.9499,0,0,0,0,0,0,0,0,0,0,0,0,0,-5.9113,-5.9117,-5.9315,-5.9316,-5.9318,-5.9413,-5.9414,-5.9415,-5.9398,-5.9396,-5.9394,-5.9392,-5.9489,-5.9494,-5.9499,0,0,0,0,0,0,0,0,0,0,0,0,0,-5.9205,-5.9118,-5.9315,-5.932,-5.9322,-5.9412,-5.9414,-5.9416,-5.9398,-5.9396,-5.9393,-5.9391,-5.9488,-5.9494,-5.95,-5.9591,0,0,-5.9519,-5.9522,0,0,0,0,0,0,0,0,-5.92,-5.9212,-5.9318,-5.932,-5.9322,-5.939,-5.9379,-5.9474,-5.9399,-5.9369,-5.9392,-5.9389,-5.9459,-5.9468,-5.9492,-5.9595,-5.96,-5.952,-5.9524,-5.9527,-5.9528,0,0,0,0,0,0,0,-5.9193,-5.9208,-5.9354,-5.932,-5.9322,-5.9318,-5.9328,-5.9397,-5.9428,-5.9372,-5.9371,-5.9383,-5.946,-5.9486,-5.9494,-5.9601,-5.952,-5.9525,-5.9529,-5.9532,-5.9784,-5.9787,0,0,0,0,0,0,-5.9186,-5.9203,-5.9351,-5.9357,-5.9253,-5.9324,-5.9335,-5.9371,-5.9427,-5.9433,-5.9385,-5.9381,-5.9476,-5.9487,-5.9497,-5.9606,-5.9526,-5.9532,-5.9536,-5.9781,-5.9784,-5.9788,0,0,0,0,0,0,-5.9181,-5.9199,-5.9347,-5.928,-5.9298,-5.933,-5.9371,-5.9374,-5.94,-5.9437,-5.9442,-5.9405,-5.9475,-5.9488,-5.9568,-5.9609,-5.9535,-5.9541,-5.9777,-5.9782,-5.9786,-5.9824,0,0,0,0,0,0,-5.9176,-5.9197,-5.9232,-5.9281,-5.9302,-5.9416,-5.9373,-5.9378,-5.9411,-5.9408,-5.9457,-5.9463,-5.9474,-5.9558,-5.9574,-5.9616,-5.9546,-5.9774,-5.9779,-5.9785,-5.9819,-5.9829,-5.9838,0,0,0,0,0,-5.9168,-5.9239,-5.9234,-5.9252,-5.9346,-5.9418,-5.943,-5.9441,-5.9415,-5.9449,-5.9473,-5.9461,-5.9603,-5.9567,-5.9584,-5.9629,-5.9771,-5.9778,-5.9784,-5.9815,-5.9827,-5.9838,0,0,0,0,0,0,-5.9193,-5.9245,-5.924,-5.9328,-5.9369,-5.9415,-5.9459,-5.9454,-5.9502,-5.9497,-5.9508,-5.952,-5.96,-5.9623,-5.9582,-5.972,-5.9683,-5.9694,-5.9701,-5.9713,-5.9722,-5.9713,-5.9551,0,0,0,0,0,-5.9209,-5.9264,-5.9306,-5.938,-5.9401,-5.9427,-5.9458,-5.9464,-5.9506,-5.9523,-5.9552,-5.9593,-5.9647,-5.9682,-5.9733,-5.9824,-5.9834,-5.9864,-5.9873,-5.9881,-5.9888,-5.9937,-5.995,-5.9809,-5.9809,-5.9809,0,0,-5.9242,-5.9277,-5.931,-5.9386,-5.9418,-5.9473,-5.9441,-5.9501,-5.9542,-5.9532,-5.9607,-5.9632,-5.9678,-5.9763,-5.9802,-5.9785,-5.993,-5.9889,-5.9895,-5.9898,-5.9945,-5.9958,-5.997,-5.9813,-5.9813,-5.9812,0,0,-5.9329,-5.9362,-5.9426,-5.946,-5.9509,-5.9527,-5.9543,-5.959,-5.9605,-5.9682,-5.9675,-5.9725,-5.9818,-5.9851,-5.988,-5.9984,-5.9974,-6.0,-6.0047,-6.0095,-6.0106,-6.0115,-6.015,-6.0163,-6.0009,-6.0009,-6.0009,0,-5.9363,-5.9447,-5.946,-5.9521,-5.9554,-5.9549,-5.9614,-5.9646,-5.971,-5.9732,-5.9713,-5.9829,-5.986,-5.9953,-5.9978,-6.0003,-6.002,-5.9992,-6.0103,-6.0113,-6.0122,-6.0155,-6.0169,-6.0011,-6.0011,-6.0011,-6.0011,0,-5.9485,-5.9544,-5.959,-5.9652,-5.9691,-5.9753,-5.9776,-5.9814,-5.9817,-5.9837,-5.9915,-5.9954,-6.0012,-6.0036,-6.0039,-6.0129,-6.0116,-6.01,-6.0063,-6.0138,-6.0169,-6.0182,-6.0015,-6.0014,-6.0013,-6.0013,0,0,-5.9586,-5.9657,-5.9673,-5.9701,-5.9757,-5.9802,-5.9866,-5.9924,-5.9955,-6.0001,-6.0053,-6.0133,-6.0119,-6.0152,-6.016,-6.0202,-6.0279,-6.018,-6.0182,-6.0195,-6.0378,-6.0387,-6.0402,-6.0275,-6.0278,-6.028,-6.0374,0,-5.9676,-5.9787,-5.9802,-5.9901,-5.9954,-5.9952,-6.0007,-6.0047,-6.0068,-6.0117,-6.014,-6.0195,-6.0174,-6.0193,-6.0236,-6.0261,-6.0315,-6.0255,-6.0322,-6.0324,-6.0306,-6.0419,-6.0428,-6.0515,-6.0386,-6.0388,-6.039,0,-5.9795,-5.9844,-5.9948,-5.9996,-6.002,-6.0069,-6.0123,-6.0171,-6.0217,-6.0229,-6.0267,-6.0271,-6.0336,-6.03,-6.0389,-6.0347,-6.0377,-6.0394,-6.0397,-6.0401,-6.0358,-6.0422,-6.0543,-6.0554,-6.041,-6.0408,-6.0407,0,-5.9855,-5.9947,-6.0021,-6.0046,-6.0105,-6.0139,-6.0166,-6.021,-6.0244,-6.0293,-6.0315,-6.0371,-6.04,-6.0444,-6.0462,-6.0434,-6.055,-6.0515,-6.056,-6.056,-6.0581,-6.0579,-6.0705,-6.0606,-6.0606,-6.0606,-6.0606,0,-5.9951,-6.0014,-6.0048,-6.0093,-6.0164,-6.0182,-6.0251,-6.0276,-6.0316,-6.0365,-6.0369,-6.0415,-6.0438,-6.0488,-6.0503,-6.0574,-6.0588,-6.0599,-6.0601,-6.0597,-6.0595,-6.0613,-6.0606,-6.0609,-6.0609,-6.0608,-6.0607,0,-6.0028,-6.0054,-6.0134,-6.0185,-6.0199,-6.0248,-6.0292,-6.0335,-6.0357,-6.042,-6.0436,-6.047,-6.0529,-6.0553,-6.0626,-6.0636,-6.0717,-6.0717,-6.0701,-6.0701,-6.0743,-6.0737,-6.0882,-6.0901,-6.0793,-6.0794,-6.0795,0,-6.0086,-6.0134,-6.0191,-6.0224,-6.0252,-6.0307,-6.0342,-6.0363,-6.04,-6.0457,-6.0493,-6.0553,-6.0601,-6.0696,-6.0727,-6.0783,-6.0782,-6.0829,-6.079,-6.0783,-6.0779,-6.0774,-6.0778,-6.0834,-6.0836,-6.0837,-6.0837,0,-6.0185,-6.0196,-6.0247,-6.0303,-6.0346,-6.0391,-6.0435,-6.0463,-6.049,-6.0532,-6.0593,-6.063,-6.0705,-6.0764,-6.0822,-6.0849,-6.0847,-6.085,-6.0863,-6.0856,-6.0844,-6.0848,-6.0717,-6.0846,-6.0845,-6.0844,-6.0844,-6.0843,-6.0252,-6.0294,-6.0341,-6.0398,-6.0434,-6.0475,-6.0519,-6.0547,-6.0598,-6.0661,-6.0671,-6.0736,-6.0782,-6.086,-6.089,-6.0941,-6.0928,-6.0947,-6.0952,-6.0955,-6.0956,-6.084,-6.0952,-6.0952,-6.0951,-6.0951,-6.0951,0,-6.0348,-6.0379,-6.0432,-6.0493,-6.0539,-6.0536,-6.0585,-6.0622,-6.068,-6.0723,-6.0771,-6.0842,-6.0899,-6.0936,-6.0994,-6.1028,-6.1029,-6.1042,-6.1038,-6.1044,-6.0965,-6.0947,-6.1041,-6.1041,-6.1041,-6.1041,-6.1041,-6.1041,-6.0404,-6.0475,-6.0492,-6.0581,-6.0612,-6.0676,-6.0704,-6.0742,-6.0777,-6.0855,-6.0903,-6.0928,-6.0969,-6.103,-6.1083,-6.1092,-6.1112,-6.1126,-6.1134,-6.1059,-6.105,-6.1041,-6.1023,-6.1131,-6.1131,-6.1208,-6.1209,-6.1209]},{"header":{"parameterUnit":"m.s-1","parameterCategory":1,"la1":30.2991,"la2":30.254,"lo1":-89.0895,"lo2":-89.0444,"dy":0.0017,"dx":0.0017,"nx":28,"ny":28,"refTime":"2025-04-03T03:00:00:Z","depth":0,"parameterNumber":3,"parameterNumberName":"V-component_of_WINDS"},"data":[0,0,0,0,0,0,0,0,0,0,0,0,0,0,0,0,0,0,0,0,0,0,0,0,0,0,0,0,0,0,0,0,0,0,0,0,0,0,0,0,0,0,0,0,0,0,0,0,0,0,0,0,0,0,0,0,0,0,3.3006,3.3007,0,3.3094,3.3095,3.3096,3.3125,3.3125,3.3125,3.3124,3.3212,3.3214,3.3217,0,0,0,0,0,0,0,0,0,0,0,0,0,3.2862,3.2864,3.3006,3.3007,3.3008,3.3094,3.3095,3.3097,3.3125,3.3125,3.3124,3.3124,3.3211,3.3214,3.3217,0,0,0,0,0,0,0,0,0,0,0,0,0,3.2935,3.2865,3.3006,3.3033,3.3036,3.3094,3.3096,3.3097,3.3125,3.3125,3.3124,3.3124,3.321,3.3214,3.3218,3.3254,0,0,3.323,3.3232,0,0,0,0,0,0,0,0,3.293,3.294,3.3028,3.3031,3.3035,3.3098,3.3077,3.3149,3.3126,3.3092,3.3124,3.3124,3.3174,3.3181,3.3199,3.3258,3.3262,3.323,3.3233,3.3234,3.3235,0,0,0,0,0,0,0,3.2925,3.2936,3.3041,3.3029,3.3034,3.3041,3.305,3.3091,3.3135,3.3094,3.3097,3.3107,3.3176,3.3195,3.3201,3.3263,3.323,3.3234,3.3236,3.3238,3.3359,3.3359,0,0,0,0,0,0,3.2916,3.2932,3.3038,3.3044,3.298,3.3044,3.3055,3.3079,3.3135,3.3143,3.3107,3.3108,3.3188,3.3196,3.3204,3.3252,3.3234,3.3238,3.324,3.3358,3.3359,3.336,0,0,0,0,0,0,3.2913,3.2925,3.3035,3.2988,3.3003,3.3047,3.3074,3.3081,3.31,3.3144,3.3152,3.3119,3.3188,3.3199,3.3242,3.3255,3.324,3.3244,3.3357,3.3358,3.3359,3.3347,0,0,0,0,0,0,3.2908,3.2924,3.2938,3.2989,3.3005,3.3071,3.3074,3.3083,3.3107,3.3108,3.3157,3.3164,3.3189,3.3236,3.3246,3.3261,3.3247,3.3356,3.3358,3.3359,3.3346,3.3347,3.3349,0,0,0,0,0,3.2903,3.293,3.2938,3.2951,3.3024,3.3072,3.3081,3.3109,3.3108,3.3122,3.3152,3.3163,3.3252,3.324,3.3252,3.3268,3.3355,3.3357,3.3359,3.3346,3.3347,3.3349,0,0,0,0,0,0,3.2878,3.2937,3.2947,3.2991,3.3026,3.3077,3.3096,3.311,3.3145,3.3145,3.3178,3.3189,3.323,3.3253,3.3238,3.3307,3.3304,3.3309,3.329,3.3292,3.3293,3.3287,3.325,0,0,0,0,0,3.2877,3.2912,3.2961,3.2995,3.3013,3.3051,3.3073,3.3092,3.3129,3.3144,3.3177,3.3212,3.3249,3.3272,3.3307,3.335,3.3362,3.3367,3.3368,3.3369,3.3372,3.3398,3.3402,3.3366,3.3366,3.3366,0,0,3.2877,3.2913,3.2933,3.2991,3.3021,3.3056,3.3063,3.3099,3.3126,3.3149,3.3193,3.3218,3.326,3.3304,3.3325,3.3325,3.3385,3.3371,3.3371,3.3374,3.3401,3.3404,3.3407,3.3367,3.3367,3.3366,0,0,3.2894,3.2924,3.2957,3.2987,3.3033,3.3059,3.3067,3.3116,3.3134,3.3179,3.3198,3.323,3.3291,3.3321,3.3344,3.3375,3.3388,3.3386,3.3392,3.3417,3.342,3.3423,3.3435,3.3439,3.3389,3.3389,3.3389,0,3.2887,3.2941,3.2972,3.3008,3.3034,3.3059,3.3092,3.312,3.3174,3.3191,3.3191,3.3271,3.33,3.3352,3.3361,3.3378,3.3389,3.338,3.3417,3.342,3.3423,3.3436,3.344,3.3389,3.3389,3.3389,3.3389,0,3.2931,3.2968,3.2989,3.3043,3.3071,3.3106,3.3142,3.3167,3.3184,3.321,3.3257,3.3294,3.3339,3.3352,3.3368,3.3408,3.3406,3.3411,3.3409,3.3426,3.3438,3.3443,3.3388,3.3388,3.3388,3.3388,0,0,3.2932,3.3006,3.3013,3.3039,3.3092,3.3122,3.3158,3.3204,3.3225,3.3262,3.3294,3.3347,3.3353,3.3379,3.3399,3.3421,3.3446,3.3423,3.3425,3.3427,3.3493,3.349,3.3495,3.3454,3.3455,3.3456,3.349,0,3.2957,3.3024,3.3054,3.3108,3.3144,3.3169,3.3201,3.3238,3.3264,3.3298,3.3326,3.3364,3.3368,3.3384,3.3407,3.3438,3.3459,3.3436,3.3485,3.3486,3.3474,3.3501,3.3497,3.3527,3.3495,3.3496,3.3496,0,3.2994,3.3034,3.3091,3.3143,3.3159,3.3188,3.3233,3.3265,3.3308,3.3325,3.3356,3.3376,3.3416,3.3411,3.3467,3.345,3.3472,3.3491,3.3492,3.3498,3.3492,3.3509,3.3538,3.3543,3.3504,3.3503,3.3503,0,3.2991,3.3059,3.3103,3.3124,3.3185,3.3205,3.3231,3.3273,3.3299,3.3339,3.3357,3.3399,3.3423,3.3456,3.3487,3.3481,3.3541,3.3538,3.3557,3.3556,3.3568,3.3567,3.3602,3.3581,3.3581,3.3581,3.3581,0,3.3016,3.305,3.3103,3.313,3.317,3.3205,3.3243,3.3271,3.3309,3.3342,3.3366,3.3397,3.3436,3.3471,3.3495,3.3539,3.3549,3.3565,3.3571,3.3563,3.3561,3.3578,3.3577,3.3582,3.3582,3.3581,3.3581,0,3.3019,3.3056,3.3106,3.316,3.3175,3.3202,3.3249,3.3277,3.3305,3.3347,3.3358,3.3402,3.3446,3.348,3.3536,3.3553,3.3599,3.3605,3.3585,3.3589,3.3606,3.3604,3.3653,3.3662,3.3634,3.3634,3.3634,0,3.3033,3.306,3.3119,3.3144,3.317,3.3209,3.3237,3.3273,3.3301,3.3353,3.3374,3.342,3.3458,3.3527,3.3563,3.3607,3.3615,3.363,3.3622,3.3614,3.3617,3.3615,3.3619,3.363,3.363,3.363,3.3631,0,3.3053,3.3071,3.311,3.3157,3.319,3.3228,3.3267,3.3285,3.3328,3.3359,3.3405,3.3435,3.3493,3.3539,3.3587,3.3613,3.363,3.3633,3.364,3.3632,3.362,3.3629,3.3589,3.3632,3.3631,3.3631,3.3631,3.3631,3.3063,3.309,3.3136,3.318,3.3214,3.325,3.3279,3.3312,3.3351,3.3403,3.3422,3.3469,3.3513,3.358,3.3607,3.3645,3.3646,3.3655,3.3658,3.366,3.366,3.3614,3.3653,3.3653,3.3653,3.3653,3.3653,0,3.3086,3.3118,3.3158,3.3213,3.3248,3.3262,3.3306,3.3334,3.3376,3.3416,3.3454,3.3508,3.3553,3.3594,3.3641,3.3663,3.3672,3.3674,3.3673,3.368,3.3655,3.3645,3.3667,3.3667,3.3667,3.3667,3.3667,3.3667,3.3102,3.3149,3.3172,3.3237,3.3268,3.3316,3.334,3.3374,3.3407,3.3466,3.3504,3.3532,3.3573,3.3623,3.3665,3.3676,3.3693,3.3694,3.3707,3.3683,3.3681,3.3679,3.367,3.3697,3.3697,3.3728,3.3728,3.3729]}]]